Aérodrome :
LOGIN :

S'inscrire | Disclaimer

   EN    FR    IT 

 










Légende :    VFR   VFR Marginal   IFR   IFR Intensif   IFR Très Intensif
Visi : 
Plafond : 
>= 8 km
>= 3000ft
5 à 8 km
1000 à 3000 ft
1500m à 5 km
500 à 1000 ft
800 à 1500m
200 à 500 ft
< 800m
< 200 ft
Symboles :   Orages  Brouillard  Fortes neiges  Fortes précipitations  Vent > 20 kt
SIGMETs :   Divers  Orages  Givrage  Turbulence  Onde Orograph.  Cendres Volcan.






- Altitude de l'aérodrome : 863 ft
- Code IATA : ZAZ


LEZG - Zaragoza Aragon

DERNIER METAR :
  • 132300Z 30012KT CAVOK 22/15 Q1016

METARs EXPIRÉS :
  • 132230Z 30014KT 270V330 CAVOK 23/15 Q1016
  • 132200Z 30015KT 270V330 9999 FEW080 24/15 Q1016
  • 132130Z 30014KT 9999 FEW080 25/15 Q1016
  • 132100Z 29013KT CAVOK 26/15 Q1015
  • 132030Z 29008KT 260V320 CAVOK 27/15 Q1015

TAF TAF LEZG
Valide du 13 à 18h jusqu'au 14 à 18h UTC


131700Z 1318/1418 30007KT 9999 FEW040 TX33/1415Z TN18/1406Z
BECMG 1412/1414 09010KT



MET'MAP, la Météo Aéronautique d'un coup d'oeil ! - Copyright ORBIFLY Décembre 2007 - Disclaimer

ORBIFLY MET'MAP TEAM :

Programmation & Développement : Alexandra Zaïnal
Sur une idée originale de : Baudouin d'Aumeries
Assistance à la programmation : Marc-Olivier Méhu
Soutien technique & logistique : Manuel Goepfert

Contact : metmap@orbifly.com




SOURCES & CREDITS :

   NOAA